Regional Weather Roundup
Issued by NWS Wakefield, VA

Home | Current Version | Previous Version | Graphics & Text | Print | Product List | Glossary On
Versions: 1 2 3 4 5 6 7 8 9 10 11 12 13 14 15 16 17 18 19 20 21 22 23 24 25 26 27
000
ASUS41 KAKQ 180715
RWRAKQ

REGIONAL WEATHER ROUNDUP
NATIONAL WEATHER SERVICE WAKEFIELD VA
300 AM EDT WED OCT 18 2017

Note: "fair" indicates few or no clouds below 12,000 feet with no
significant weather and/or obstructions to visibility. * = Denotes
station may not report precipitation (e.g., rain,snow,etc.),
thunder or fog.

VAZ042-051-052>054-056-180800-
NORTHERN VIRGINIA

CITY           SKY/WX    TMP DP  RH WIND       PRES   REMARKS
WASH NATIONAL  PTCLDY    49  43  80 CALM      30.34F
DULLES         CLEAR     41  38  89 CALM      30.33S
FORT BELVOIR   CLEAR     39  38  95 CALM      30.34S
QUANTICO       CLEAR     44  42  93 NW7       30.35S
FREDERICKSBRG* CLEAR     39  39 100 CALM      30.34R
STAFFORD*      CLEAR     35  35 100 CALM      30.38S
WARRENTON      CLEAR     34  32  91 CALM      30.33S
CULPEPER*      CLEAR     36  34  94 CALM      30.35S
MANASSAS*      CLEAR     36  35  96 S3        30.34S
LEESBURG*      CLEAR     41  41 100 CALM      30.33S
WINCHESTER     CLEAR     37  36  93 CALM      30.32S
FRONT ROYAL*   SUNNY     43  37  81 SW5       30.32S
LURAY*         SUNNY     37  37 100 CALM      30.33S
$$

VAZ048-049-060>072-079>083-180800-
CENTRAL AND SOUTH CENTRAL VIRGINIA

CITY           SKY/WX    TMP DP  RH WIND       PRES   REMARKS
RICHMOND       CLEAR     42  40  92 CALM      30.34S
CHESTERFIELD*  NOT AVBL
PETERSBURG*    CLEAR    N/A N/A N/A CALM      30.35R
HANOVER        CLEAR     39  38  96 CALM      30.35S
TAPPAHANNOCK*  CLEAR    N/A N/A N/A CALM      30.35S
QUINTON*       FAIR      38  38 100 CALM      30.34S
CHARLOTTSVILLE CLEAR     41  38  89 W5        30.33S
GORDONSVILLE*  SUNNY     37  37 100 CALM      30.33S
ORANGE*        CLEAR     34  34 100 CALM      30.33S
LOUISA*        CLEAR     34  32  93 CALM      30.33S
BUMPASS*       FAIR      37  37 100 CALM      30.34R
FARMVILLE*     CLEAR     37  37 100 CALM      30.34R
CREWE*         FAIR      35  35 100 CALM      30.34S
FORT PICKETT*  FAIR      40  40 100 CALM      30.34S
CHASE CITY*    FAIR      40  40 100 CALM      30.34S
CLARKSVILLE*   FAIR      39  39 100 CALM      30.33S
SOUTH HILL*    CLEAR     38  38  99 CALM      30.39S
LAWRENCEVILLE* FAIR      40  39  96 CALM      30.33S
EMPORIA*       CLEAR     34  34 100 CALM      30.35S
$$

VAZ088>098-180800-
SOUTHEAST VIRGINIA

CITY           SKY/WX    TMP DP  RH WIND       PRES   REMARKS
NORFOLK        CLEAR     48  47  96 CALM      30.32F
VIRGINIA BEACH CLEAR     46  42  86 CALM      30.31S
NORFOLK NAVAL  PTCLDY    46  43  89 CALM      30.33F
WEST POINT*    MOCLDY    37  36  98 CALM      30.35F
SALUDA*        FAIR      41  41 100 CALM      30.33S
NEWPORT NEWS   CLEAR     41  39  93 CALM      30.33F
LANGLEY AFB    CLEAR     46  44  95 CALM      30.32F
FORT EUSTIS    CLEAR     44  40  87 CALM      30.30F
WILLIAMSBURG*  CLEAR     45  45 100 CALM      30.34F
HR EXEC AP*    NOT AVBL
FRANKLIN*      CLEAR     37  36  96 CALM      30.34S
US460-WAKEFLD  PTCLDY    38  37  97 CALM      30.34S
$$

VAZ020-022-025-037-045-180800-
WEST CENTRAL AND SOUTHWEST VIRGINIA

CITY           SKY/WX    TMP DP  RH WIND       PRES   REMARKS
STAUNTON*      CLEAR     33  32  95 CALM      30.35S
WAYNESBORO*    SUNNY     37  37  97 S3        30.33S
HOT SPRINGS VA CLEAR     47  30  53 CALM      30.33S
LYNCHBURG      CLEAR     38  38 100 CALM      30.34S
DANVILLE       CLEAR     38  38 100 CALM      30.34S
SOUTH BOSTON*  FAIR      36  35  95 CALM      30.34S
MARTINSVILLE   CLEAR     35  35  98 CALM      30.38R
ROANOKE        CLEAR     41  39  93 CALM      30.36R
BLACKSBURG     CLEAR     38  38  97 CALM      30.37R
DUBLIN*        CLEAR     39  38  93 CALM      30.35S
MARION*        CLEAR     38  35  90 CALM      30.36S
HILLSVILLE*    CLEAR     41  36  83 CALM      30.33S
RICHLANDS*     FAIR      44  36  72 CALM      30.32S
WISE*          CLEAR     46  36  66 SE3       30.32S
ABINGDON*      CLEAR     43  40  89 E3        30.32S
$$

MDZ021>025-VAZ099-100-180800-
SOUTHERN MARYLAND AND THE DELMARVA PENINSULA

CITY           SKY/WX    TMP DP  RH WIND       PRES   REMARKS
PATUXENT RIVER CLEAR     39  32  76 W3        30.33S
BAY BRIDGE APT CLEAR     54  45  71 W3        30.33S
LEONARDTOWN    NOT AVBL
DOVER          CLEAR     43  43 100 S5        30.32S
GEORGETOWN     CLEAR     39  37  92 CALM      30.34S
EASTON         CLEAR     44  41  91 CALM      30.37S
CAMBRIDGE      CLEAR     39  37  93 CALM      30.34S
SALISBURY      PTCLDY    38  36  92 CALM      30.34S
OCEAN CITY     CLEAR     39  38  96 CALM      30.34S
WALLOPS ISLAND CLEAR     42  41  96 NW3       30.34S
ACCOMACK*      CLEAR     41  40  99 CALM      30.33F
$$

NCZ012>017-030>032-180800-
NORTH CENTRAL AND EASTERN NORTH CAROLINA

CITY           SKY/WX    TMP DP  RH WIND       PRES   REMARKS
ROANOKE RAPIDS FAIR      36  36 100 CALM      30.33S
RALEIGH        CLEAR     41  40  96 CALM      30.34R
ELIZABETH CITY PTCLDY    53  48  83 N10       30.31S
AHOSKIE*       CLEAR     38  38 100 CALM      30.33S
EDENTON*       PTCLDY    47  44  88 CALM      30.32S
CURRITUCK*     PTCLDY    47  45  91 CALM      30.32S
KILL DEVIL HLS PTCLDY    58  46  65 NE5       30.28F
MANTEO         PTCLDY   N/A N/A N/A NE8       30.29F
CAPE HATTERAS  CLEAR     62  53  72 NE9G18    30.26S
TARBORO*       NOT AVBL
GOLDSBORO      CLEAR     45  41  87 CALM      30.30S
WASHINGTON     CLEAR     46  43  91 N3        30.32S
GREENVILLE     CLEAR     41  41 100 CALM      30.32S
NEW BERN       CLEAR     50  46  86 NE7       30.31S
WILMINGTON     CLEAR     48  44  86 NE5       30.28F
$$

VAZ048-180800-
ELSEWHERE

CITY           SKY/WX    TMP DP  RH WIND       PRES   REMARKS
HARRISBURG PA  CLEAR     45  42  89 CALM      30.31S
BALTIMORE      CLEAR     42  41  96 CALM      30.33S
ANNAPOLIS      CLEAR     47  45  93 CALM      30.33S
ANDREWS AFB    CLEAR     41  39  93 CALM      30.32S
PHILADELPHIA   CLEAR     49  37  63 W3        30.32F
HENDERSON NC   CLEAR     37  37  97 CALM      30.33S FOG
GREENSBORO     CLEAR     44  39  82 CALM      30.33R
ROCKY MOUNT    CLEAR     40  40 100 CALM      30.32F
$$

VAZ100-180800-
MARINE

STATION/POSITION TIME  TEMP    WIND        PRES    WAVE   SWELL
                       AIR SEA DIR/SP/G            HT/PER HT/PER
                 (UTC) (F)     (DEG/KT/KT) (MB)    (FT/S) (FT/S)
BRANDYWINE LGT   0642          250/ 11/ 12 1027.4R
CAPE MAY NJ      0648          260/  8/ 10 1026.5R
LEWES DE         0648          230/  5/  7 1027.0R
15NM E FENWICK I 0650   58 67  300/  4/  6 1027.5F   3/10   2/10
OCEAN-CITY-INLET 0648           CALM  /  1 1027.6F
WACHAPREAGUE VA  0642          320/  3/  4 1027.1F
THOMAS POINT MD  0700   54 67  270/  7/  8   N/A
GOOSES REEF MD   0650   58     290/  8/ 10 1027.4S
COVE POINT MD    0648          250/  3/  5 1027.8R
SOLOMONS ISLAND  0648          320/  2/  3 1026.9R
BISHOPS HEAD MD  0648          190/  5/  6 1027.3S
PINEY POINT MD   0642          240/  5/  7   N/A
POTOMAC MD       0650   58     230/  4/  6 1026.6S
CAMBRIDGE MD     0648                      1028.0R
LEWISETTA VA     0642          270/  4/  5 1027.2S
RAPPAHANNOCK LGT 0642           70/  6/  7 1027.6F
STINGRAY PT      0650   58     340/  4/  6 1027.3S
YORK RVR RNG VA  0642           70/  4/  5 1027.4F
YORKTOWN VA      0642          290/  2/  3 1026.7F
JAMESTOWN VA     0650           50/  4/  4   N/A
DOMINION TERM VA 0642           40/  1/  2 1026.9F
KIPTOPEKE VA     0642           40/  5/  6   N/A
CAPE HENRY VA    0642           10/ 11/ 13   N/A
WILLOUBY STN VA  0642          360/  6/  7 1026.6F
S CRANEY ISL VA  0642          290/  4/  4 1026.5F
CAPE HENRY BUOY  0630      70                N/A     3/ 6   2/11
1ST LANDING BUOY 0650   58                 1026.9F
CAPE CHARLES BUO 0651      70                N/A     3/ 7   2/11
64NM E OF VA BCH 0650   61 67   30/ 10/ 14 1026.3F   5/ 8   5/ 8
DUCK PIER NC     0642           40/ 15/ 17 1025.6F
44100 DUCK FRF   0635      71                N/A     4/ 8   2/11
44056 DUCK FRF   0630      70                N/A     4/11   2/11
OREGON INLET NC  0642           20/ 11/ 15 1025.1F
HATTERAS NC      0642           40/ 11/ 16 1024.4S
DIAMOND SHLS NC  0650   67 81   30/ 19/ 25 1023.4S   7/ 9   3/ 9
CAPE LOOKOUT NC  0700   59      10/ 17/ 20 1024.2F
$$




USA.gov is the U.S. government's official web portal to all federal, state and local government web resources and services.